Regional Weather Roundup
Issued by NWS

Home | Current Version | Previous Version | Text Only | Print | Product List | Glossary On
Versions: 1 2 3 4 5 6 7 8 9 10 11 12 13 14 15 16 17 18 19 20 21 22 23 24 25 26 27 28 29 30 31 32 33 34 35 36 37 38 39 40 41 42 43 44 45 46 47 48 49 50
000
ASUS45 KTFX 171110
RWRMT
Montana Regional Weather Roundup
National Weather Service Great Falls MT
400 AM MST SUN NOV 17 2019

NOTE: "FAIR" indicates few or no clouds below 12,000 feet with no
significant weather and/or obstructions to visibility.

MTZ001>007-043-171200-
West of the divide

CITY           SKY/WX    TMP DP  RH WIND       PRES   REMARKS
Kalispell      CLOUDY    40  32  73 SW8       30.13F
Missoula       MOCLDY    37  33  85 CALM      30.19F
Butte          CLOUDY    35  24  64 N3        30.18S
Anaconda         N/A     46  25  42 W13       30.15F
Deer Lodge       N/A     36  28  75 CALM      30.19S
Hamilton       CLOUDY    48  25  40 S12       30.20F
Mullan Pass    CLOUDY    32  28  85 SW8       30.17S WCI  25
Ronan            N/A     41  34  75 SE6       30.15F
$$

MTZ008-052>055-171200-
Southwest Montana

CITY           SKY/WX    TMP DP  RH WIND       PRES   REMARKS
Bozeman        CLOUDY    34  28  79 CALM      30.15F
Dillon         CLOUDY    40  19  43 SW18G25   30.17F
Ennis          CLOUDY    39  19  45 S14       30.23F WCI  31
Three Forks      N/A     32  26  78 CALM      30.12F
W Yellowstone  CLOUDY    30  25  80 SW13G20   30.26S WCI  20
$$

MTZ009-010-012-014-046-048-049-054-171200-
East Slopes and Central Montana

CITY           SKY/WX    TMP DP  RH WIND       PRES   REMARKS
Cut Bank       FAIR      43  29  57 W30G40    29.83F
Great Falls    FAIR      45  25  45 SW26G36   29.93F
Helena         CLOUDY    47  25  42 W13G21    30.11F
Malmstrom AFB  MOCLDY    46  29  51 SW23G31   29.94F
Augusta        DRIZZLE   46  32  57 W26G41    29.92F
Bowmans Corner CLOUDY    41  27  57 S25G31    29.94F
Choteau          N/A     52  32  46 W22G36    29.88F
Fairfield      MOCLDY    48  31  51 SW18      29.90F
Power          MOCLDY    43  28  57 SW17      29.91F
Raynesford     FAIR      47  28  46 SW24G33   29.93F
Ulm            MOCLDY    47  28  46 SW25G31   29.96F
White Sulphur    N/A     39  21  48 S8        30.05F
$$

MTZ011-013-016-021-045-047-050-051-171200-
North Central Montana

CITY           SKY/WX    TMP DP  RH WIND       PRES   REMARKS
Havre          FAIR      39  28  64 SW16      29.87F WCI  30
Lewistown      FAIR      38  24  57 SW16      29.95F WCI  29
Chinook          N/A     28  28 100 E6        29.89F WCI  22
Denton         FAIR      35  25  66 SW10      29.90F WCI  28
Fort Benton      N/A     46  28  49 S10       29.91F
Geyser         MOCLDY    44  26  49 W20       29.91F
Grass Range    MOCLDY    34  23  62 CALM      29.92F
Judith Gap     MOCLDY    37  22  55 SW9       29.96F WCI  30
N Bar Ranch    FAIR      28  19  69 SW5       29.98F
Roy            FAIR      37  23  57 W3        29.92F
Stanford       MOCLDY    43  26  51 SW3       29.93F
Winifred       FAIR      39  25  57 W13       29.92F WCI  31
$$

MTZ017>020-022>027-061-062-171200-
Northeast Montana

CITY           SKY/WX    TMP DP  RH WIND       PRES   REMARKS
Glasgow        FAIR      30  25  81 E9        29.93F WCI  22
Circle           N/A     25  25 100 SW6       29.97  WCI  18
Culbertson     FOG       19  18  93 E3        29.98F VSB 1/4
Glendive       FAIR      30  28  92 SW9       30.01F WCI  22
Jordan           N/A     28  24  85 W5        29.96F
Malta          CLEAR     25  25 100 CALM      29.91F
Poplar           N/A     28  27  93 CALM      29.97F VSB 1/4
Sidney         FAIR      23  22  96 S3        30.01F
Wolf Point     FAIR      22  18  85 CALM      29.98F
$$

MTZ028>42-056>058-171200-
Southcentral and southeast Montana

CITY           SKY/WX    TMP DP  RH WIND       PRES   REMARKS
Baker          FAIR      32  28  85 W7        30.02F WCI  26
Big Timber     PTCLDY    45  14  29 W43G49    30.00S
Billings       FAIR      36  26  67 SW14      30.01F WCI  27
Forsyth          N/A     30  25  80 CALM      30.02F
Harlowton      FAIR      42  19  40 NW21G26   29.99F
Laurel           N/A     39  27  60 SW21G26   30.02F WCI  29
Livingston     CLOUDY    46  18  32 W26       30.06F
Miles City     FAIR      28  26  92 S8        30.01F WCI  20
$$

Regional Reports...Dakotas/MN

CITY           SKY/WX    TMP DP  RH WIND       PRES   REMARKS
Williston      FOG       28  26  92 SW6       29.97F VSB<1/4 WCI  22
Minot          CLOUDY    34  31  88 W13       29.97S WCI  25
Dickinson      FAIR      29  26  89 W12       29.98F WCI  19
Beach          FAIR      28  27  93 SW9       30.02F WCI  20
Crosby         CLOUDY    32  32 100 W7        29.98F WCI  26
Hettinger      FAIR      24  23  96 NW8       30.03S WCI  15
Tioga          CLOUDY    32  32 100 W14       29.98F WCI  22
Watford City     N/A     32  32 100 W5        30.00F
Bismarck       CLOUDY    36  31  82 NW9       30.01R WCI  29
Grand Forks    CLOUDY    30  21  69 NW6       29.94S WCI  24
Fargo          CLOUDY    33  26  75 NW13      29.95R WCI  24
Buffalo SD       N/A     30  24  78 W10       30.00S WCI  21
Rapid City     FAIR      32  23  69 SW6       30.06F WCI  26
Intl Falls     CLOUDY    32  30  92 NW10      29.78R WCI  24
Duluth         DRZL/FOG  36  31  82 SW10      29.82F VSB 1/2 WCI  28
Minneapolis    CLOUDY    38  35  89 SW3       29.90F FOG
$$

Regional Reports...WY/ID/WA

CITY           SKY/WX    TMP DP  RH WIND       PRES   REMARKS
Buffalo WY     FAIR      33  20  58 SW7       30.03F WCI  27
Cody           FAIR      46  20  35 W22G33    30.05F
Gillette       FAIR      34  26  72 SW14      30.06F WCI  25
Powell         FAIR      28  27  93 SE13      30.05F WCI  18
Sheridan       FAIR      27  19  72 S7        30.02F WCI  19
Yellowstone La   N/A     28  21  75 CALM      30.27S
Boise          FAIR      37  27  67 SE6       30.33F
Couer d`Alene  CLOUDY    42  39  89 S6        30.19F
Idaho Falls    MOCLDY    32  24  72 SW8       30.33S WCI  25
Salmon         CLOUDY    34  29  82 CALM      30.31F
Spokane        CLOUDY    42  37  82 S5        30.19S
Seattle        CLOUDY    52  48  86 S9        30.14R
$$

Regional Reports...Alberta

CITY           SKY/WX    TMP DP  RH WIND       PRES   REMARKS
Calgary        MOCLDY    43  25  49 SE5       29.65F
Cardston         N/A     48  34  57 W18G33      N/A
Crowsnest Pass   N/A     41  32  70 NW24G46     N/A
Del Bonita       N/A     43  32  65 S13         N/A
Edmonton       CLOUDY    37  30  75 SW7       29.54F
Fort McMurray  CLOUDY    30  30 100 E5        29.48F
High Level     CLOUDY    18  18 100 N10       29.37  WCI   6
Lethbridge     CLOUDY    50  32  50 SW24G35   29.78R
Lloydminster   CLOUDY    32  28  86 S16       29.60F WCI  21
Medicine Hat   MOCLDY    41  30  65 SW10G17   29.74F
Milk River       N/A     46  32  57 W17G24      N/A
Onefour          N/A     28  27  93 E8          N/A  WCI  20
Peace River    CLOUDY    34  34 100 S6        29.39F WCI  29
Pincher Creek  CLEAR     45  30  57 W33G49    29.81F
Raymond          N/A     46  34  61 SW24        N/A
Waterton Gate    N/A     41  32  70 W22G39      N/A
Fort Smith NWT CLOUDY    21  19  93 NE3       29.47F
$$

Regional Reports...Saskatchewan

CITY           SKY/WX    TMP DP  RH WIND       PRES   REMARKS
Assiniboia       N/A     27  23  86 S7          N/A  WCI  19
Coronach         N/A     23  21  93 SE6         N/A  WCI  16
Cypress Hills    N/A     27  23  86 S7          N/A  WCI  19
Estevan        CLOUDY    32  30  93 W10       29.96F WCI  24
La Ronge         N/A     28  27  93 S8          N/A  WCI  20
Moose Jaw        N/A     28  27  93 SE7         N/A  WCI  21
Prince Albert  FOG       28  28 100 SW8       29.84F VSB 3/4 WCI  20
Regina         CLOUDY    30  30 100 S5        29.91F FOG
Rockglen         N/A     27  23  86 S7          N/A  WCI  19
Saskatoon      FOG       30  30 100 S13       29.81F VSB 1/4 WCI  20
Swift Current  CLEAR     32  27  80 S15       29.79F WCI  22
Uranium City     N/A     23  23 100 E5          N/A
Val Marie        N/A     23  21  93 SW3         N/A
$$



USA.gov is the U.S. government's official web portal to all federal, state and local government web resources and services.